Regional Weather Roundup
Issued by NWS

Home | Current Version | Previous Version | Graphics & Text | Print | Product List | Glossary On
Versions: 1 2 3 4 5 6 7 8 9 10 11 12 13 14 15 16 17 18 19 20 21 22 23 24 25 26 27 28 29 30 31 32 33 34 35 36 37 38 39 40 41 42 43 44 45 46 47 48 49 50
000
ASUS44 KMEG 242310
RWRTN
TENNESSEE HOURLY STATE WEATHER ROUNDUP
NATIONAL WEATHER SERVICE MEMPHIS TN
600 PM CDT WED MAY 24 2017

TNZ002-004-019-021-049-052-054-088>092-250000-
WEST TENNESSEE

CITY           SKY/WX    TMP DP  RH WIND       PRES   REMARKS
MEMPHIS INTL   CLOUDY    59  52  77 W10       29.61R
NWS MEMPHIS      N/A     63 N/A N/A MISG        N/A
JACKSON        PTSUNNY   66  51  58 NW21G28   29.56R
DYERSBURG        N/A    N/A N/A N/A MISG        N/A
COVINGTON      MOSUNNY   63  50  63 NW8G16    29.58S
UNION CITY     MOSUNNY   66  52  59 NW5       29.54S
BOLIVAR        CLOUDY    61  52  72 W8G17     29.56R
PARIS          PTSUNNY   61  54  77 SW8       29.53S
HUNTINGDON     SUNNY     63  55  77 W6        29.54R
LEXINGTON      MOSUNNY   66  52  59 MISG      29.54R
SELMER         MOSUNNY   64  55  72 SW5       29.55R
SAVANNAH       CLOUDY    64  50  59 W6        29.55R
$$

TNZ008-025-027-028-033-062-065-066-250000-
NORTH MIDDLE TENNESSEE

CITY           SKY/WX    TMP DP  RH WIND       PRES   REMARKS
NASHVILLE      MOSUNNY   64  51  62 NW9       29.53S
PORTLAND       PTSUNNY   59  54  82 NW8       29.51S
CLARKSVILLE    PTSUNNY   62  53  72 N8        29.52S
SMYRNA         PTSUNNY   63  53  70 NW8       29.54R
COOKEVILLE     CLOUDY    59  54  82 VRB3G12   29.52R
GALLATIN       CLOUDY    61  54  77 VRB5      29.54F
CROSSVILLE     CLOUDY    56  53  90 W12G18    29.53R
$$

TNZ061-075-076-078-094-096-097-250000-
SOUTH MIDDLE TENNESSEE

CITY           SKY/WX    TMP DP  RH WIND       PRES   REMARKS
FAYETTEVILLE   PTSUNNY   66  50  55 NW6       29.54R
TULLAHOMA      MOSUNNY   63  48  59 NW8       29.55R
WINCHESTER     MOSUNNY   64  52  63 NW8         N/A
COLUMBIA       PTSUNNY   64  52  63 VRB3      29.51S
SHELBYVILLE    MOSUNNY   64  50  59 NW10G17   29.53S
$$

TNZ017-018-042-046-047-250000-
NORTHEAST TENNESSEE

CITY           SKY/WX    TMP DP  RH WIND       PRES   REMARKS
TRI CITIES     TSTM      63  61  93 S3        29.48S FOG
ELIZABETHTON   PTSUNNY   63  61  94 CALM      29.48R FOG
$$

TNZ012-013-036-069-073-074-250000-
CENTRAL EAST TENNESSEE

CITY           SKY/WX    TMP DP  RH WIND       PRES   REMARKS
KNOXVILLE      PTSUNNY   68  53  58 W16G26    29.46R
OAK RIDGE      CLOUDY    66  51  58 W12G23    29.49R
DOWNTOWN KNOXV PTSUNNY   70  54  56 W9G20     29.46R
GATLINBURG     MOSUNNY   70  55  60 W12       29.46R
MORRISTOWN     PTSUNNY   68  57  68 W10G17    29.46R
JACKSBORO      PTSUNNY   64  52  63 SW8G14    29.49S
$$

TNZ083-085-099-250000-
SOUTHEAST TENNESSEE

CITY           SKY/WX    TMP DP  RH WIND       PRES   REMARKS
CHATTANOOGA    PTSUNNY   67  52  58 W12       29.52R
$$

SKY/WX REPORTED AS FAIR MEANS FEW OR NO CLOUDS BELOW
12 THOUSAND FEET.





USA.gov is the U.S. government's official web portal to all federal, state and local government web resources and services.